Regional Weather Roundup
Issued by NWS

Home | Current Version | Previous Version | Graphics & Text | Print | Product List | Glossary On
Versions: 1 2 3 4 5 6 7 8 9 10 11 12 13 14 15 16 17 18 19 20 21 22 23 24 25 26 27 28 29 30 31 32 33 34 35 36 37 38 39 40 41 42 43 44 45 46 47 48 49 50
000
ASUS45 KTFX 270919
RWRMT
MONTANA HOURLY WEATHER ROUNDUP
NATIONAL WEATHER SERVICE GREAT FALLS MT
219 AM MST FRI FEB 27 2015

NOTE: "FAIR" INDICATES FEW OR NO CLOUDS BELOW 12000 FEET WITH NO
SIGNIFICANT WEATHER AND/OR OBSTRUCTIONS TO VISIBILITY.

* THESE STATIONS ARE NOT UNDER NWS QUALITY CONTROL. THEY DO NOT
   REPORT WEATHER SUCH AS PRECIPITATION OR FOG.

MTZ001>007-043-271000-
WEST OF THE DIVIDE
CITY           SKY/WX    TMP DP  RH WIND       PRES   REMARKS
KALISPELL      MOCLDY    27  16  63 NE5       29.91F WCI  21
MISSOULA       CLOUDY    27  12  53 SE14      29.93F WCI  16
BUTTE          PTCLDY    10   3  73 CALM      29.87F
MULLAN PASS    LGT SNOW  19  18  96 S7        29.77F VSB 2    WCI  10
* ANACONDA     PTCLDY     9   3  76 SW9        N/A   WCI  -4
* ESSEX        N/A       16  10  77 SE7        N/A   WCI   6
* EUREKA APT   MOCLDY    30  16  56 NW5       29.93F WCI  25
* HAMILTON APT MOCLDY    25  16  69 SW2       29.89F
* LIBBY APT    CLOUDY    28  23  81 CALM      29.91F
* LINCOLN      N/A        2  -2  83 N/A        N/A
* LOOKOUT PASS N/A       27  21  78 S4         N/A
* POLSON       N/A       25  16  69 N/A        N/A
* RONAN APT    MOCLDY    27  23  85 N/A        N/A
* SEELEY LAKE  N/A       10   6  84 N/A        N/A
* THOMP F APT  MOCLDY    17   7  65 NE1        N/A
$$

MTZ008-052>055-271000-
SOUTHWEST MONTANA
CITY           SKY/WX    TMP DP  RH WIND       PRES   REMARKS
BOZEMAN        PTCLDY     9   1  70 W3        29.97F
DILLON         CLOUDY    12   9  88 W5        29.89F WCI   4
* W YELLOWSTON PTCLDY    -4  -9  79 N/A        N/A
* THREE FORKS  PTCLDY    10   3  73 N/A        N/A
* BOULDER HILL N/A        9   3  76 SW13       N/A   WCI  -7
* MONIDA PASS  N/A        9   7  91 N2         N/A
* RAYNOLDS PAS N/A        2 -26  25 N/A        N/A
* WHITEHALL    N/A       11   5  77 E3         N/A
* WISE RIVER   N/A       11   3  70 S7         N/A
$$

MTZ009>010-012-014-046-048-049-054-271000-
EAST SLOPES AND CENTRAL MONTANA
CITY           SKY/WX    TMP DP  RH WIND       PRES   REMARKS
CUT BANK       CLOUDY     5   3  91 SE6       29.95F WCI  -6
GREAT FALLS    PTCLDY    10   3  73 S8        29.95F WCI  -2
HELENA         PTCLDY    10   5  80 CALM      29.99S
MALMSTROM AFB  PTCLDY     3   1  91 N3        29.98F
* CONRAD       MOCLDY     0  -6  75 CALM       N/A
* DEARBORN     N/A        3  -1  83 S1         N/A
* EAST GLACIER N/A        5   2  87 W1         N/A
* MONARCH      N/A        2  -4  76 E4G9       N/A
* PENDROY      N/A        4   2  91 SW4        N/A
* ROGERS PASS  N/A       10   4  76 W4G11      N/A
* SWEET GRASS  N/A        3   0  87 S17G24     N/A   WCI -17
* WHITE SULPH  N/A       -2  -8  75 N1         N/A
$$

MTZ011-013-016-021-035-040-045-047-050-051-271000-
NORTH CENTRAL MONTANA
CITY           SKY/WX    TMP DP  RH WIND       PRES   REMARKS
HAVRE          CLEAR      1  -2  87 E7        30.08F WCI -12
LEWISTOWN      PTCLDY    -8 -11  86 SE6       29.95F WCI -21
* N BAR RANCH  CLEAR      5  -8  54 N7        29.96F WCI  -7
* CHINOOK      CLEAR      1  -4  79 E6        30.11F WCI -11
* FORT BENTON  PTCLDY     7   0  73 E6        30.06F WCI  -4
* MALTA APT    PTCLDY     1  -8  65 N/A        N/A
* CHESTER      N/A        5  -1  76 SE3        N/A
* DENTON       N/A        9  -1  63 SE20G26    N/A   WCI -10
* GEYSER       N/A       -3  -7  83 SW8        N/A   WCI -18
* JUDITH GAP   N/A       -7 -10  86 S10        N/A   WCI -25
* LOMA         N/A        6   0  76 E9         N/A   WCI  -8
$$

MTZ017>020-022>027-061-062-271000-
NORTHEAST MONTANA
CITY           SKY/WX    TMP DP  RH WIND       PRES   REMARKS
GLASGOW        CLEAR      1  -6  72 SE13      30.23F WCI -17
GLENDIVE       CLEAR      0  -6  75 S6        30.28F WCI -12
JORDAN         CLEAR      1  -6  72 CALM      30.19F
SIDNEY         CLEAR     -4 -18  50 CALM      30.36F
WOLF POINT     CLEAR      0  -8  68 NE6       30.31F WCI -12
* BEAVER HILL  N/A        0  -6  75 SE9        N/A   WCI -15
* CIRCLE       N/A        0  -5  79 N/A        N/A
* LINDSAY DVD  N/A       -6 -10  82 SE4        N/A
* NAVAJO       N/A       -2  -7  79 S8         N/A   WCI -17
* PLENTYWOOD A CLEAR     -6  -9  87 E6        30.28F WCI -19
* POPLAR APT   CLEAR      1  -6  72 SE5       30.31F WCI  -9
* SACO         N/A        4  -4  69 SE9        N/A   WCI -10
* SCOBEY APT   CLEAR     -2 -13  59 N/A        N/A
$$

MTZ028>042-056>058-271000-
SOUTHCENTRAL AND SOUTHEAST MONTANA
CITY           SKY/WX    TMP DP  RH WIND       PRES   REMARKS
BAKER          CLEAR     -2  -8  75 SE7       30.26F WCI -15
BILLINGS       PTCLDY     1  -2  87 CALM      30.08F
LIVINGSTON     CLOUDY     9   3  76 E5        29.97F
MILES CITY     CLEAR      0  -6  75 SE10      30.24F WCI -16
* BIG TIMBER A PTCLDY     5   1  83 CALM      30.00F
* FORSYTH APT  CLEAR      1  -6  72 E7        30.20F WCI -12
* LAUREL APT   PTCLDY     1  -8  65 N/A        N/A
* ROUNDUP APT  PTCLDY     0  -8  68 S7         N/A   WCI -13
* ALZADA       N/A       -9 -13  82 E4         N/A
* HYSHAM       N/A        4  -7  60 S4G9       N/A
* LAME DEER    N/A       -2  -7  79 SE12G19    N/A   WCI -20
* REED POINT   N/A       -2  -5  87 N/A        N/A
* ROSCOE HILL  N/A       -2  -8  75 SW1        N/A
$$

REGIONAL REPORTS...DAKOTAS
CITY           SKY/WX    TMP DP  RH WIND       PRES   REMARKS
WILLISTON      PTCLDY   -15 -18  86 CALM      30.36F
DICKINSON      CLEAR     -6 -11  78 S7        30.30F WCI -20
BEACH          CLEAR     -2  -8  75 S8        30.29F WCI -17
CROSBY         CLEAR     -9 -13  82 SW10      30.35F WCI -27
TIOGA          CLEAR    -18 -20  90 CALM      30.36F
WATFORD CITY   CLEAR    -13 -18  78 CALM      30.33F
BISMARCK       CLEAR     -8 -13  78 CALM      30.45F
GRAND FORKS    PTCLDY   -11 -18  70 SW3       30.46F
FARGO          CLEAR     -8 -13  78 SW5       30.49F WCI -20
BUFFALO SD     CLEAR     -4 -11  71 SE5       30.20F WCI -15
RAPID CITY     PTCLDY    -4  -9  79 SE5       30.30F WCI -15
$$

REGIONAL REPORTS...WYOMING/IDAHO/WASHINGTON
CITY           SKY/WX    TMP DP  RH WIND       PRES   REMARKS
GILLETTE       CLEAR      1  -6  72 S16       30.11F WCI -19
SHERIDAN       PTCLDY    -9 -17  67 CALM      30.07F
CODY           PTCLDY     3   0  87 SE6       29.96F WCI  -8
YELLOWSTONE LA MOCLDY   -11 -17  74 CALM      29.83F
SALMON         MOCLDY    28  19  69 CALM      29.85F
MULLAN PASS    LGT SNOW  19  18  96 S7        29.77S VSB 2    WCI  10
SAND POINT     CLOUDY    30  30 100 CALM      29.90F
SPOKANE        MOCLDY    30  28  92 CALM      29.87F
$$

REGIONAL REPORTS...ALBERTA
CITY           SKY/WX    TMP DP  RH WIND       PRES   REMARKS
CALGARY        MOCLDY    18   9  68 N21G28    29.99R WCI   1
LETHBRIDGE     FAIR      10   7  88 W8        29.98R WCI  -2
MEDICINE HAT   CLEAR      3   0  87 N6        30.09S WCI  -8
EDMONTON       CLOUDY     9   3  76 NW8       30.12S WCI  -3
WATERTON GATE  N/A       10   7  88 SW2        N/A
CARDSTON       N/A       12  10  92 SE1        N/A
MILK RIVER     N/A        5   3  91 S16        N/A   WCI -14
$$

REGIONAL REPORTS...SASKATCHEWAN
CITY           SKY/WX    TMP DP  RH WIND       PRES   REMARKS
SWIFT CURRENT  CLEAR      1  -6  72 S9        30.11F WCI -14
REGINA         N/A      -15 -20  77 SE9       30.30F WCI -33
VAL MARIE      N/A        3  -4  72 S13        N/A   WCI -14
ASSINIBOIA     N/A       -6 -11  78 S7         N/A   WCI -20
CORONACH       N/A       -2  -6  83 SE8        N/A   WCI -17

$$



USA.gov is the U.S. government's official web portal to all federal, state and local government web resources and services.